Change the Weather History Date:

Monday, November 4, 2013

  Actual Average Record
Temperature  
Mean Temperature 49 °F 53 °F  
Max Temperature 62 °F 64 °F 80 °F (1956)
Min Temperature 36 °F 41 °F 14 °F (1879)
Degree Days  
Heating Degree Days 16 13  
Month to date heating degree days 58 49  
Since 1 July heating degree days 308 312  
Cooling Degree Days 0 0  
Month to date cooling degree days 0 0  
Year to date cooling degree days 1499 1488  
Moisture  
Dew Point 39 °F    
Average Humidity 67    
Maximum Humidity 92    
Minimum Humidity 42    
Precipitation  
Precipitation 0.00 in 0.13 in 1.95 in (1936)
Month to date precipitation 0.11 0.52  
Year to date precipitation 51.94 41.39  
Snow  
Snow 0.00 in 0.00 in 2.00 in (1936)
Month to date snowfall 0.0 0.0  
Since 1 July snowfall 0.0 T  
Since 1 September snowfall 0.0 T  
Snow Depth 0.00 in    
Sea Level Pressure  
Sea Level Pressure 30.33 in    
Wind  
Wind Speed 5 mph (SE)    
Max Wind Speed 18 mph    
Max Gust Speed 23 mph    
Visibility 10 miles    
Events      
T = Trace of Precipitation, MM = Missing Value Source: NWS Daily Summary

Daily Weather History Graph

Daily Weather History Graph

Search for Another Location

Airport or City:

Trip Planner

Search our weather history database for the weather conditions in past years. The results will help you decide how hot, cold, wet, or windy it might be!

Date:

Astronomy

Nov. 04, 2013 Rise Set
Actual Time 6:13 AM CST 4:44 PM CST
Civil Twilight 5:45 AM CST 5:12 PM CST
Nautical Twilight 5:15 AM CST 5:42 PM CST
Astronomical Twilight 4:44 AM CST 6:13 PM CST
Moon 7:21 AM CST (11/4) 5:51 PM CST (11/4)
Length of Visible Light 11h 26m
Length of Day
10h 31m
New Moon, 2% of the Moon is Illuminated
Nov 4
New Moon
Nov 9
First Quarter
Nov 17
Full
Nov 25
Last Quarter
Dec 2
New

Hourly Weather History & Observations

Time (CST) Temp. Windchill Dew Point Humidity Pressure Visibility Wind Dir Wind Speed Gust Speed Precip Events Conditions
12:53 AM 36.0 °F 33.3 °F 34.0 °F 93% 30.30 in 10.0 mi ENE 3.5 mph - N/A   Clear
1:53 AM 37.9 °F - 35.1 °F 89% 30.30 in 10.0 mi Calm Calm - N/A   Clear
2:53 AM 37.0 °F - 35.1 °F 93% 30.31 in 10.0 mi Calm Calm - N/A   Clear
3:53 AM 37.0 °F - 35.1 °F 93% 30.31 in 10.0 mi Calm Calm - N/A   Clear
4:53 AM 37.9 °F 35.5 °F 35.1 °F 89% 30.31 in 10.0 mi ESE 3.5 mph - N/A   Clear
5:53 AM 41.0 °F 39.0 °F 36.0 °F 82% 30.32 in 10.0 mi East 3.5 mph - N/A   Clear
6:53 AM 42.1 °F - 37.0 °F 82% 30.36 in 10.0 mi Calm Calm - N/A   Clear
7:53 AM 46.0 °F 44.8 °F 39.0 °F 76% 30.37 in 10.0 mi East 3.5 mph - N/A   Clear
8:53 AM 52.0 °F - 41.0 °F 66% 30.37 in 10.0 mi SSE 8.1 mph - N/A   Clear
9:53 AM 55.9 °F - 39.9 °F 55% 30.39 in 10.0 mi South 12.7 mph - N/A   Clear
10:53 AM 60.1 °F - 39.9 °F 47% 30.38 in 10.0 mi South 10.4 mph - N/A   Clear
11:53 AM 61.0 °F - 37.9 °F 42% 30.34 in 10.0 mi South 17.3 mph 21.9 mph N/A   Clear
12:53 PM 61.0 °F - 37.9 °F 42% 30.32 in 10.0 mi South 12.7 mph - N/A   Clear
1:53 PM 61.0 °F - 39.0 °F 44% 30.32 in 10.0 mi South 10.4 mph - N/A   Clear
2:53 PM 61.0 °F - 37.9 °F 42% 30.31 in 10.0 mi South 6.9 mph - N/A   Clear
3:53 PM 60.1 °F - 41.0 °F 49% 30.29 in 10.0 mi East 4.6 mph - N/A   Clear
4:53 PM 55.9 °F - 41.0 °F 57% 30.31 in 10.0 mi Calm Calm - N/A   Clear
5:53 PM 53.1 °F - 43.0 °F 69% 30.31 in 10.0 mi Calm Calm - N/A   Clear
6:53 PM 51.1 °F - 42.1 °F 71% 30.31 in 10.0 mi ESE 4.6 mph - N/A   Clear
7:53 PM 51.1 °F - 43.0 °F 74% 30.32 in 10.0 mi Calm Calm - N/A   Clear
8:53 PM 48.9 °F - 43.0 °F 80% 30.33 in 10.0 mi Calm Calm - N/A   Clear
9:53 PM 48.9 °F - 43.0 °F 80% 30.34 in 10.0 mi Calm Calm - N/A   Clear
10:53 PM 48.0 °F - 43.0 °F 83% 30.35 in 10.0 mi Calm Calm - N/A   Clear
11:53 PM 53.1 °F - 39.9 °F 61% 30.33 in 10.0 mi SSE 8.1 mph - N/A   Clear